Dewpoint
56 55 51 53 58 58 59 59 59 58 59 59 60 60 60 59 59 59 59 59 59 60 59 59 59 59 59 59 59 60 50 22 20 19 19 21 39 54 56 56 58 59 53 29 29 24 22 22 23 22 18 17 20 22 22 25 35 30 24 23 20 25 26 30 28 26 27 26 28 25 34 32 30 34 37 40 38 38 39 39 41 40 40 41 41 42 43 45
57 54 51 56 58 58 59 59 59 59 59 59 59 59 59 58 58 58 58 58 58 59 59 59 59 58 58 59 58 57 35 21 17 17 19 34 54 57 57 57 58 58 45 24 29 27 21 20 24 16 16 16 21 22 26 25 27 28 26 21 21 25 27 32 27 27 25 25 28 25 26 33 32 35 36 33 34 36 36 38 39 39 40 41 43 45 45 45
58 57 58 58 58 58 59 59 59 59 59 59 59 59 59 58 58 58 58 58 57 58 58 59 59 57 58 59 57 54 30 19 17 15 17 50 54 57 56 57 60 53 28 25 29 28 26 24 26 16 16 16 17 22 26 24 26 29 26 23 26 27 28 29 24 22 25 24 21 22 27 33 32 35 38 33 31 36 36 35 35 37 40 40 43 46 46 45
58 57 58 58 58 58 59 59 59 59 59 59 59 59 59 59 58 58 58 58 58 58 58 59 57 58 58 57 59 44 22 19 16 18 19 50 57 55 55 55 59 49 36 37 33 35 25 19 16 15 16 16 18 23 21 25 24 26 25 24 26 29 27 23 22 22 22 22 22 24 25 25 30 34 36 34 31 32 35 37 35 35 38 40 43 46 46 46
58 58 57 57 58 58 58 59 59 59 59 59 59 59 59 58 59 58 58 58 58 58 58 58 59 58 58 57 52 23 20 16 16 20 21 52 55 54 51 56 57 41 31 37 23 23 22 22 17 18 16 13 20 15 15 18 24 28 26 29 27 24 22 23 22 22 22 23 22 25 24 24 28 32 35 34 32 29 29 33 37 38 37 40 43 45 46 46
57 57 57 57 58 57 57 58 59 59 59 59 59 59 59 58 58 57 58 57 58 58 58 59 58 58 57 54 32 29 18 11 24 18 48 50 52 54 51 53 50 36 25 19 20 15 13 11 12 16 17 12 12 11 11 17 22 22 24 21 24 22 21 20 22 22 23 22 20 21 25 26 27 27 28 33 35 34 33 34 33 34 36 39 44 46 46 46
57 56 57 57 57 57 57 58 59 59 59 59 59 59 58 58 57 58 58 58 58 58 59 58 58 55 54 49 34 26 22 21 16 20 46 50 51 48 46 41 45 23 17 15 15 14 14 11 13 17 17 13 13 12 18 24 22 20 19 20 19 21 20 21 21 22 22 20 19 24 24 21 24 21 25 27 33 37 34 31 33 35 35 38 43 45 46 46
57 57 56 56 57 56 57 57 58 59 59 59 59 59 58 57 57 58 58 58 58 59 59 59 57 54 51 32 27 24 16 13 15 23 42 48 31 29 39 24 22 20 17 16 16 14 15 12 10 16 13 12 15 16 22 17 22 21 21 20 19 21 21 21 21 21 22 22 21 20 20 19 22 23 22 22 23 24 26 34 33 35 38 40 42 44 45 45
57 57 56 56 57 57 57 57 58 58 59 58 59 58 57 57 58 58 58 58 59 58 59 58 55 55 51 31 25 17 13 16 18 24 26 21 22 23 24 21 22 18 19 21 18 14 14 13 16 11 11 13 14 23 24 16 15 23 20 21 20 19 19 20 20 20 21 21 19 16 15 17 18 24 19 19 20 23 30 36 34 35 39 41 43 44 45 45
56 57 55 56 57 57 57 57 57 58 58 58 58 58 57 57 58 58 58 58 59 59 58 58 59 52 31 23 23 15 14 17 22 24 19 22 22 22 23 23 22 21 20 20 21 19 17 15 18 15 13 14 19 21 22 21 19 23 23 20 18 19 19 18 19 19 17 19 19 16 15 15 21 17 15 18 22 29 34 35 33 35 38 40 42 44 45 45
56 56 56 57 57 57 57 57 57 58 58 59 58 57 58 57 58 58 59 59 59 59 59 58 56 46 23 19 16 12 14 18 24 17 18 21 21 21 22 23 22 21 20 20 21 19 18 16 18 19 22 18 23 23 20 20 22 21 21 21 18 20 17 18 17 16 16 15 17 16 15 16 17 18 16 15 23 30 33 33 34 36 37 39 40 42 44 45
56 56 56 56 57 57 57 58 58 58 59 58 59 58 58 58 58 58 59 59 59 58 57 54 48 23 22 16 13 13 18 20 23 17 17 21 21 21 23 24 23 21 20 19 20 21 19 22 19 23 13 23 22 22 20 23 19 19 20 16 18 21 16 17 19 17 16 14 18 17 14 13 19 17 18 19 26 30 32 31 33 36 36 37 38 41 42 44
56 56 56 56 57 57 58 58 58 58 59 58 58 58 59 58 58 59 59 58 58 58 56 55 44 33 28 21 16 18 19 18 18 17 16 20 22 23 24 23 23 22 21 20 19 20 24 25 21 20 26 21 23 14 22 24 22 21 19 17 19 19 18 17 19 19 16 15 19 16 1 -4 15 18 19 20 27 28 28 29 30 33 35 36 36 38 41 42
56 56 56 56 56 57 58 58 58 58 58 57 57 57 58 58 58 59 57 56 55 56 55 56 36 31 23 17 18 17 22 24 17 17 16 21 21 21 22 22 23 22 24 20 21 25 25 24 22 24 30 20 19 27 20 23 23 15 19 21 19 13 13 19 21 21 14 17 18 16 5 2 2 10 14 18 27 27 24 25 27 28 29 32 35 36 38 40
56 55 56 56 56 57 57 57 58 58 58 59 58 55 58 58 58 59 57 53 54 54 56 53 33 26 20 17 18 24 43 18 16 17 18 20 21 19 19 21 21 22 22 21 21 25 25 20 19 17 18 26 27 21 18 20 20 21 7 10 17 13 15 16 21 20 18 19 19 16 10 11 7 9 14 19 27 26 25 24 24 25 27 28 30 33 35 37
56 56 56 56 57 57 56 57 57 57 58 57 57 57 58 59 59 58 58 58 55 56 50 36 33 23 20 16 16 32 16 15 15 17 16 23 21 19 20 21 22 21 20 20 22 23 25 23 18 19 21 16 19 17 14 12 13 17 12 6 11 13 12 5 19 22 21 19 19 12 6 10 7 10 20 24 26 26 24 23 22 22 23 25 27 29 32 34
55 56 56 56 56 57 55 56 56 57 56 57 56 55 55 57 58 59 56 53 52 50 26 27 30 34 23 21 16 11 13 15 18 17 15 22 22 21 21 20 20 19 21 20 20 21 22 21 24 21 20 18 20 11 -2 9 9 10 16 7 13 8 10 6 13 20 17 15 12 18 15 14 11 11 12 17 24 22 21 19 19 20 21 22 25 27 28 30
55 55 56 56 56 55 56 56 56 56 56 56 52 52 49 55 56 50 41 43 41 38 37 36 32 18 14 12 5 9 16 17 18 17 17 17 23 21 20 19 21 16 18 17 15 18 21 18 21 14 12 15 14 6 5 -25 -7 -1 9 9 11 15 15 13 12 11 15 16 12 11 12 12 10 7 4 4 5 17 14 13 13 14 16 19 23 25 27 29
55 55 55 55 56 57 57 57 55 55 55 55 56 55 51 47 38 29 32 31 27 23 26 21 19 12 10 12 15 17 18 18 19 13 16 18 22 22 25 23 20 15 16 14 16 20 21 21 19 9 4 12 15 13 6 -2 11 10 11 13 10 10 9 6 11 17 17 11 9 6 4 2 4 6 6 7 8 10 10 12 13 12 13 16 20 23 25 27
54 54 55 55 56 56 57 56 55 54 52 44 40 37 37 28 25 18 25 29 19 17 18 19 20 21 18 14 16 18 19 11 10 12 16 19 24 19 16 20 21 20 21 13 18 22 23 12 8 5 9 14 15 17 16 12 16 18 18 16 15 15 14 15 16 18 19 12 9 8 9 8 7 7 7 7 8 10 10 10 10 11 12 13 17 20 23 25
54 54 55 55 56 56 56 56 55 54 53 42 40 36 25 25 11 10 17 22 27 26 26 24 19 13 12 13 17 17 7 5 10 12 16 21 21 13 9 17 19 14 16 22 20 23 20 13 8 13 11 15 16 19 20 17 19 17 16 15 11 15 8 9 11 15 17 10 10 9 8 7 7 6 5 6 7 8 10 10 10 10 11 12 14 16 20 22
55 55 55 55 55 57 56 55 55 54 52 42 37 32 33 31 28 19 20 12 21 28 24 21 17 14 16 18 18 13 9 4 5 11 17 23 21 8 13 17 14 11 19 21 18 18 12 6 10 14 17 19 18 19 18 15 15 15 9 8 2 2 10 10 12 16 16 12 8 10 7 6 5 5 5 6 6 9 12 12 11 12 13 13 14 16 18 20
55 55 55 55 55 56 56 56 53 51 40 40 37 37 37 41 43 40 25 20 20 25 22 22 19 15 16 17 18 16 10 8 6 11 17 24 21 23 22 18 19 20 16 19 13 10 1 5 12 17 19 16 16 17 15 14 16 12 8 6 1 4 -0 4 7 14 14 11 9 10 10 7 5 1 2 5 7 9 13 16 16 18 15 14 15 17 18 18
55 55 56 55 55 54 56 53 49 38 39 40 38 37 39 41 40 34 28 20 20 23 26 22 19 17 16 17 19 16 11 12 13 13 19 25 23 22 23 21 19 18 14 19 16 3 -15 10 19 21 19 15 14 15 13 14 10 15 9 7 4 4 6 -2 2 12 15 16 16 12 3 -4 -4 -1 -1 3 9 10 8 5 6 7 17 18 19 16 19 19
54 55 55 56 54 55 52 47 36 35 38 28 35 38 41 41 39 32 26 22 24 22 28 29 21 20 18 21 23 20 17 17 16 16 20 24 25 22 22 23 17 15 15 19 16 11 5 12 19 14 16 16 14 14 13 11 10 8 10 8 3 6 8 9 13 9 1 -2 11 8 -1 -2 -5 0 1 3 10 3 5 3 3 5 5 8 9 13 16 19
54 55 56 56 54 53 52 33 25 39 28 25 33 40 40 39 40 32 23 19 8 20 20 17 23 14 20 20 18 22 12 12 13 14 30 25 31 21 22 19 14 9 15 18 12 8 10 16 16 13 14 16 14 13 14 12 8 0 -3 9 9 9 12 14 13 4 1 -9 -4 9 -8 -1 -3 -1 -0 6 8 1 2 3 3 5 6 7 10 14 17 19
53 55 56 56 54 49 27 24 24 31 24 24 43 42 42 43 40 28 16 11 8 18 13 20 16 15 24 23 17 12 0 2 9 20 23 27 22 25 16 18 15 21 22 20 8 7 16 15 15 17 16 14 14 9 11 11 4 2 2 11 14 13 13 13 12 5 5 10 12 10 -2 -6 -3 -1 5 10 4 -0 2 3 4 5 6 8 10 13 17 20
52 54 55 55 54 48 30 34 33 27 22 34 41 40 38 38 39 31 17 -5 -5 21 18 20 19 21 24 25 18 7 4 15 9 12 25 26 26 19 16 16 12 16 21 8 -11 0 12 11 14 12 13 11 8 13 13 8 0 3 10 15 14 15 14 14 11 10 10 3 4 5 9 -2 -1 3 3 2 -3 -2 2 3 4 6 8 10 11 14 15 18
54 54 54 53 52 49 41 39 33 30 39 41 40 41 39 35 28 20 9 -3 -7 17 26 21 24 12 20 26 20 21 22 21 8 13 22 23 19 15 14 20 17 23 22 18 11 11 19 14 17 12 12 10 11 13 14 9 7 7 14 18 18 18 17 14 11 10 7 -3 -4 2 4 -6 1 2 -2 -4 -2 -1 2 4 5 8 9 10 12 14 15 16
54 53 53 54 43 39 39 35 39 42 41 40 40 39 33 31 23 16 -1 -12 20 9 21 19 12 14 21 17 18 14 11 13 23 22 20 16 15 19 22 25 23 18 14 20 17 16 19 27 25 14 11 9 11 17 15 14 12 17 16 14 8 6 14 13 7 3 1 -9 1 4 6 -0 -4 -2 -3 -4 -2 0 3 6 7 9 10 11 12 13 15 15
53 53 52 50 38 36 30 25 30 42 39 44 38 32 25 20 15 5 -7 6 15 15 20 17 11 23 20 5 4 12 18 19 16 20 14 22 16 21 21 16 21 16 17 16 4 13 13 21 19 19 25 17 15 12 17 17 20 16 10 5 -3 2 -2 3 4 3 -8 -7 -1 1 9 0 -9 2 1 3 4 5 4 3 7 8 10 11 12 13 14 14
53 54 51 47 45 42 35 23 40 43 41 38 32 27 18 5 7 -1 -2 20 6 12 9 8 18 19 20 20 9 9 14 14 18 21 18 18 18 5 5 8 9 -9 6 2 -3 5 -3 13 21 18 28 16 11 11 8 15 15 10 3 1 -6 -3 -4 -13 -7 -11 -11 -5 2 0 -3 -4 -2 -1 5 5 3 5 8 9 9 10 10 11 12 13 14 15
53 52 50 46 44 36 37 40 42 43 40 36 29 24 13 9 -7 5 2 9 -2 20 14 13 11 16 17 -1 -6 11 18 8 16 19 22 20 15 11 17 14 12 -8 -13 -1 -3 -2 6 11 16 18 16 21 7 3 2 -2 5 2 -0 -1 -4 -11 -16 -16 -6 -11 -10 -1 -1 -3 -2 -6 -3 -3 2 0 5 6 8 9 10 11 10 11 12 14 14 15
52 47 39 43 40 39 39 40 40 41 35 36 23 16 14 -8 -6 23 6 7 -3 21 19 11 17 18 5 -7 -9 17 -3 11 18 16 12 9 11 4 9 18 17 13 5 2 -8 -8 -10 1 -4 16 9 15 12 4 0 -3 5 6 1 -4 -1 -3 -13 -12 -16 -14 -7 -2 -3 -0 -8 -2 -8 -0 3 2 6 8 9 11 9 12 11 12 12 13 14 14
51 45 41 38 35 38 41 38 39 39 34 27 19 18 4 4 -0 -3 3 9 10 19 15 23 13 6 4 13 14 19 0 -3 14 13 12 6 1 10 1 3 16 9 9 -2 2 -6 -10 -3 -6 15 15 15 13 16 7 1 2 9 3 4 -2 -7 5 -9 -5 -12 -14 -6 -4 -7 -2 4 5 6 15 8 7 9 11 10 13 11 12 13 14 14 14 15
47 41 37 33 36 33 38 40 37 35 28 21 18 7 5 4 -1 3 -2 16 18 7 14 3 5 -1 3 3 2 12 13 3 7 2 2 7 4 4 6 7 7 7 0 -10 4 -10 -3 -12 10 16 14 13 13 19 16 4 -5 2 1 -4 -0 10 -3 -6 2 1 -3 -5 -2 -8 0 3 5 8 5 3 7 10 11 11 10 10 10 12 14 14 14 15
37 36 26 32 28 31 37 39 38 33 26 20 17 5 11 12 10 9 31 14 11 14 6 -6 -0 -1 -4 -5 -2 7 9 12 10 -2 -7 5 0 6 11 12 13 14 6 -1 -4 0 -10 -6 0 13 11 16 15 19 18 17 4 5 -4 -0 8 6 1 -2 -8 -10 -15 -11 -6 -3 -1 -0 -1 -0 10 3 8 9 10 9 9 10 11 11 13 13 14 15
36 36 32 28 28 37 39 39 33 29 29 24 9 29 17 8 20 23 25 21 21 13 1 -10 -5 -5 -6 -6 -7 -0 4 -3 8 -0 -4 4 -7 9 14 11 17 16 16 15 -7 -5 10 -4 0 10 12 14 12 17 12 13 16 2 1 4 0 -6 -4 3 -6 -12 -14 -11 -9 -3 -6 -3 -2 5 8 2 8 8 9 9 10 9 10 11 12 13 14 15
34 30 20 23 34 39 39 35 32 29 24 14 9 13 23 18 26 26 26 24 23 11 -1 2 -5 12 -0 -3 -2 4 2 -5 1 0 -10 -7 -3 5 8 14 15 20 19 10 5 9 -0 -10 -0 4 10 11 8 8 5 10 13 15 13 7 9 0 -3 -8 0 -3 -1 -8 -9 1 -7 -3 2 7 4 4 5 9 10 10 9 10 10 11 13 14 14 15
33 30 23 27 37 39 39 37 31 24 20 14 12 15 21 20 23 27 26 25 20 6 6 6 11 4 5 5 5 0 6 3 -3 -3 -10 -6 -1 8 8 15 12 18 18 16 7 12 -0 -3 -10 1 3 2 -0 7 3 10 7 10 8 4 4 -3 7 4 -4 -3 -1 -13 -12 -11 -4 -2 2 9 6 7 8 9 10 10 10 10 10 10 12 14 15 15
32 27 26 32 37 39 34 29 23 20 15 16 21 18 24 21 27 25 27 26 24 21 17 9 10 5 2 2 -1 5 6 10 6 3 1 0 -0 -8 5 13 16 15 15 10 8 10 -1 -3 -0 3 -3 0 -1 3 6 9 12 12 12 9 11 1 -3 -7 0 -5 -9 -6 -4 -12 -2 -2 5 9 8 8 9 10 10 10 11 10 10 11 12 15 15 15
25 20 24 30 38 33 29 19 17 23 19 17 12 23 22 33 22 23 26 26 22 18 18 17 16 5 10 1 -4 4 4 8 12 7 9 -3 1 -1 4 17 16 16 14 9 9 13 8 -1 -1 0 -3 -4 -2 2 13 10 12 13 10 8 10 4 3 -5 -8 -0 -5 -1 -7 -7 -9 2 7 6 9 10 10 11 11 11 11 11 10 11 13 16 16 15
24 20 27 33 37 29 22 10 23 18 17 22 25 25 26 28 19 21 24 24 19 18 19 15 13 14 13 5 11 10 6 2 11 8 10 6 3 4 9 20 15 12 17 9 6 6 19 -1 -5 0 3 1 4 5 11 12 9 8 8 8 7 3 7 7 3 -1 -0 -4 -4 -5 -4 3 6 7 9 11 11 11 12 11 11 11 11 13 14 16 16 16
26 26 22 30 34 32 21 11 9 10 16 23 25 25 26 28 24 22 22 22 18 20 15 17 13 16 7 17 12 6 8 -3 4 4 3 13 10 21 19 22 17 11 6 11 11 17 -3 8 -2 -4 -1 1 3 5 5 7 8 7 3 7 8 4 1 -1 0 -4 -1 3 3 -1 -1 3 6 8 12 11 12 12 13 13 12 12 13 14 15 16 17 17
25 25 26 29 29 25 19 21 16 9 17 20 21 20 22 22 24 23 22 20 23 20 16 14 15 17 17 19 14 19 18 -1 -1 1 7 12 15 20 19 17 19 13 20 22 21 6 1 8 -1 -7 -8 -9 -9 -9 -4 -2 4 6 6 7 8 8 5 3 1 -1 -0 4 2 -3 0 3 6 10 12 13 13 13 13 14 14 12 13 15 16 17 17 17
19 5 21 18 21 24 22 25 24 20 18 18 12 14 21 20 23 25 23 24 24 23 19 19 21 19 17 13 12 13 12 13 1 1 8 6 9 18 21 17 19 19 24 30 22 8 -1 6 2 4 2 -2 1 2 2 9 1 1 1 5 9 9 10 6 5 1 4 3 1 4 4 4 4 5 5 9 14 14 14 14 14 15 15 16 17 17 17 18
22 9 18 8 16 19 16 23 22 18 14 20 8 13 11 17 18 16 23 21 23 22 21 18 19 11 12 12 11 11 13 11 13 10 9 6 10 14 16 21 22 25 30 26 19 7 1 2 8 5 5 5 2 0 14 7 1 1 1 6 10 10 11 8 6 5 6 0 4 6 6 6 6 7 9 13 14 14 15 14 15 15 15 16 16 17 21 19
7 14 24 22 10 6 9 20 23 21 19 13 11 16 13 17 19 11 19 24 23 23 19 14 19 16 13 11 9 4 9 11 12 5 11 10 12 13 15 18 22 24 22 17 15 10 4 2 3 2 5 6 7 5 5 5 5 4 4 5 8 10 9 8 8 9 6 5 4 5 6 6 7 8 11 13 14 15 15 15 15 15 15 16 17 16 16 18
21 23 19 23 17 20 17 18 22 22 20 13 17 17 13 17 14 16 19 23 23 22 20 11 12 18 17 15 6 4 13 -3 2 5 8 6 8 9 8 9 18 21 18 17 15 4 8 8 1 2 5 7 8 8 8 7 7 8 10 9 8 9 10 10 9 8 8 8 8 8 8 9 10 11 12 14 15 15 15 16 16 16 16 16 16 16 16 18
22 16 15 21 23 21 21 23 23 21 19 25 10 17 16 17 15 18 18 21 15 18 22 14 16 18 19 17 12 6 9 6 -6 -3 2 9 5 9 6 12 10 20 17 14 13 13 10 6 11 4 2 7 9 8 8 10 9 10 10 10 11 11 11 11 9 9 9 10 10 10 10 11 12 14 14 15 16 16 16 15 15 15 16 16 16 15 16 18
27 23 23 14 9 12 21 22 22 21 17 17 12 17 18 18 18 20 16 22 15 16 19 17 18 20 21 19 17 15 16 15 8 6 10 11 6 14 9 6 19 15 14 12 10 11 5 6 0 0 2 7 7 9 10 10 10 10 10 10 10 10 9 10 7 11 8 9 8 6 4 9 11 15 15 15 16 15 15 15 15 15 16 16 16 15 16 18
26 27 28 20 11 25 16 18 18 13 10 18 18 18 16 15 22 19 11 18 21 22 22 21 20 20 20 19 18 18 19 18 19 18 17 17 17 18 15 11 17 18 15 16 9 10 9 4 3 0 3 6 6 8 9 9 7 6 7 7 8 9 10 6 6 8 11 9 4 2 8 9 14 16 15 15 15 15 15 14 15 16 16 16 16 16 18 19